Location: Unspecified
(0.0000°N, 0.0000°E)
Time: 17:38:29
(UTC+00:00)

deb Explorer IX - Pass Details

Date: 20 December 2018
Orbit: 536 x 1117 km, 38.8° (Epoch: 20 March)

Event Time Altitude Azimuth Distance (km) Brightness Sun altitude
Rises 10:38:16 0° 203° (SSW) 3,911 ? 59.7°
Reaches altitude 10° 10:42:08 10° 185° (S) 2,899 ? 60.3°
Maximum altitude 10:46:43 18° 145° (SE) 2,265 ? 60.9°
Drops below altitude 10° 10:51:00 10° 104° (ESE) 2,683 ? 61.5°
Sets 10:54:21 0° 85° (E) 3,515 ? 62.0°
